EROS A1

Last updated on July 7, 2016, 9:38 a.m. UTC

1 26631U 00079A   16189.05109989  .20884161  29118-5  17845-3 0  9994
2 26631  97.5215 309.5274 0021517 337.3677  22.8343 16.50691252866752

Satellite is not in orbit.